Tracking 20093 objects as of 16-Dec-2019
HD Live streaming from Space Station
objects crossing your sky now

FENGYUN 1C DEB

Track FENGYUN 1C DEB now!
10-day predictions


NORAD ID: 31631
Int'l Code: 1999-025CAM
Perigee: 747.9 km
Apogee: 1,022.6 km
Inclination: 99.3 °
Period: 102.5 minutes
Semi major axis: 7256 km
RCS: 0.0204 m2 (small)
Launch date: May 10, 1999
Source: People's Republic of China (PRC)
Launch site: Taiyaun Space Center, China (TSC)

Note: This is SATELLITE DEBRIS
aabbcc
Your satellite tracking list
Your tracking list is empty




NASA's NSSDC Master Catalog

Two Line Element Set (TLE):
1 31631U 99025CAM 19348.57025307 +.00001119 +00000-0 +62173-3 0  9997
2 31631 099.3145 098.9771 0189326 058.9959 302.9651 14.04541268328680
Source of the keplerian elements: AFSPC